Regional Weather Roundup
Issued by NWS

Home | Current Version | Previous Version | Text Only | Print | Product List | Glossary On
Versions: 1 2 3 4 5 6 7 8 9 10 11 12 13 14 15 16 17 18 19 20 21 22 23 24 25 26 27
000
ASUS42 KKEY 062210
RWRKEY

FLORIDA REGIONAL WEATHER ROUNDUP FOR THE FLORIDA KEYS
NATIONAL WEATHER SERVICE KEY WEST FLORIDA
600 PM EDT FRI MAY 06 2016

...SOUTH FLORIDA AND THE KEYS...

CITY           SKY/WX    TMP DP  RH WIND       PRES   REMARKS
FORT MYERS     SUNNY     77  48  35 W15G23    29.86S
SW REGIONAL AP SUNNY     76  48  37 W12G18    29.87S
NAPLES         SUNNY     76  50  40 NW14G21   29.88S
MIAMI          MOSUNNY   80  47  31 VRB5      29.84S
WEST KENDALL   SUNNY     81  49  32 W10       29.84S
HOMESTEAD      SUNNY     81  49  32 NW8       29.83S
MARATHON       SUNNY     78  53  41 NW8       29.87S
BOCA CHICA NAS MOSUNNY   77  54  44 NW8       29.89S
KEY WEST INTL  SUNNY     78  58  49 N9        29.89S

...INTERNATIONAL WEATHER...

CITY           SKY/WX    TMP DP  RH WIND       PRES   REMARKS
NASSAU BAHAMAS MOSUNNY   81  61  50 NW10      29.86R
CANCUN MEXICO  MOSUNNY   86  55  35 N8        29.92F
COZUMEL MEXICO MOSUNNY   79  66  65 NE10      29.93F

ADJACENT COASTAL WATERS...

STATION/POSITION TIME  SKY/WX   TEMP    WIND        PRES    WAVE
                                AIR SEA DIR/SP/G            HT/PER
                 (UTC)          (F)     (DEG/KT/KT) (MB)    (FT/S)
PULASKI SHOAL LI 2200            74      10/ 10/ 12 1012.7R
SAND KEY         2150            74     350/ 10/ 14 1012.5F
SOMBRERO KEY     NOT AVBL
LONG KEY         2100            76 80  320/ 14/ 16 1011.6F
MOLASSES REEF    2200            77 79  260/ 18/ 19 1010.7S
FOWEY ROCKS      NOT AVBL

$$




USA.gov is the U.S. government's official web portal to all federal, state and local government web resources and services.